EHI
0 0 0 0 0 0 0 0 0 0 0 0 0 1 3 6 8 9 9 5 3 4 6 6 6 5 5 6 8 11 10 6 6 7 6 3 2 2 2 1 0 0 0 0
0 0 0 0 0 0 0 0 0 0 0 0 0 0 2 5 6 7 8 6 4 4 5 5 4 4 4 6 8 9 8 5 5 6 6 4 3 3 2 1 0 0 0 0
0 0 0 0 0 0 0 0 0 0 0 0 0 0 1 2 4 5 6 5 4 4 4 4 4 4 4 4 6 6 5 3 3 4 5 5 4 3 2 1 0 0 0 0
0 0 0 0 0 0 0 0 0 0 0 0 0 0 0 1 2 5 6 6 5 4 4 4 5 6 5 3 3 3 3 1 1 2 4 5 4 3 2 1 0 0 0 0
0 0 0 0 0 0 0 0 0 0 0 0 0 0 0 0 2 4 6 7 5 4 5 5 5 5 4 2 2 2 1 0 0 2 3 3 2 1 1 0 0 0 0 0
0 0 0 0 0 0 0 0 0 0 0 0 0 0 0 0 1 3 5 6 4 4 5 5 4 3 2 1 1 2 1 0 0 1 2 2 1 0 0 0 0 0 0 0
0 0 0 0 0 0 0 0 0 0 0 0 0 0 0 0 0 2 4 4 3 3 4 5 4 3 1 0 1 2 1 0 0 0 1 1 0 0 0 0 0 0 0 0
0 0 0 0 0 0 0 0 0 0 0 0 0 0 0 0 0 1 3 3 3 4 5 5 4 3 1 0 0 1 1 0 0 0 0 0 0 0 0 0 0 0 0 0
0 0 0 0 0 0 0 0 0 0 0 0 0 0 0 1 0 1 2 3 4 6 6 5 3 2 1 0 0 0 0 0 0 0 0 0 0 0 0 0 0 0 0 0
0 0 0 0 0 0 0 0 0 0 0 0 0 0 0 0 0 1 3 4 5 5 5 3 2 2 1 0 0 0 0 0 0 0 0 0 0 0 0 0 0 0 0 0
0 0 0 0 0 0 0 0 0 0 0 0 0 0 0 0 0 2 3 4 5 4 3 2 1 1 1 0 0 0 0 0 0 0 0 0 0 0 0 0 0 0 0 0
0 0 0 0 0 0 0 0 0 0 0 0 0 0 0 0 0 1 3 5 5 3 2 1 0 0 0 0 0 0 0 0 0 0 0 0 0 0 0 0 0 0 0 0
0 0 0 0 0 0 0 0 0 0 0 0 0 0 0 0 0 1 4 6 5 3 1 0 0 0 0 0 0 0 0 0 0 0 0 0 0 0 0 0 0 0 0 0
0 0 0 0 0 0 0 0 0 0 0 0 0 0 0 0 0 2 5 6 5 3 1 0 0 0 0 0 0 0 0 0 0 0 0 0 0 0 0 0 0 0 0 0
0 0 0 0 0 0 0 0 0 0 0 0 0 0 0 0 0 2 5 6 6 3 1 0 0 0 0 0 0 0 0 0 0 0 0 0 0 0 0 0 0 0 0 0
0 0 0 0 0 0 0 0 0 0 0 0 0 0 1 1 1 2 4 6 5 3 1 0 0 0 0 0 0 0 0 0 0 0 0 0 0 0 0 0 0 0 0 0
0 0 0 0 0 0 0 0 0 0 0 0 0 0 1 2 1 1 3 4 4 3 1 0 0 0 0 0 0 0 0 0 0 0 0 0 0 0 0 0 0 0 0 0
0 0 0 0 0 0 0 0 0 0 0 0 0 0 0 1 1 0 1 2 3 3 1 0 0 0 0 0 0 0 0 0 0 0 0 0 0 0 0 0 0 0 0 0
0 0 0 0 0 0 0 0 0 0 0 0 0 0 0 0 0 0 0 1 2 2 1 0 0 0 0 0 0 0 0 0 0 0 0 0 0 0 0 0 0 0 0 0
0 0 0 0 0 0 0 0 0 0 0 0 0 0 0 0 0 0 0 0 1 1 1 0 0 0 0 0 0 0 0 0 0 0 0 0 0 0 0 0 0 0 0 0
0 0 0 0 0 0 0 0 0 0 0 0 0 0 0 0 0 0 0 0 0 0 0 0 0 0 0 0 0 0 0 0 0 0 0 0 0 0 0 0 0 0 0 0
0 0 0 0 0 0 0 0 0 0 0 0 0 0 0 0 0 0 0 0 0 0 0 0 0 0 0 0 0 0 0 0 0 0 0 0 0 0 0 0 0 0 0 0
0 0 0 0 0 0 0 0 0 0 0 0 0 0 0 0 0 0 0 0 0 0 0 0 0 0 0 0 0 0 0 0 0 0 0 0 0 0 0 0 0 0 0 0
0 0 0 0 0 0 0 0 0 0 0 0 0 0 0 0 0 0 0 0 0 0 0 0 0 0 0 0 0 0 0 0 0 0 0 0 0 0 0 0 0 0 0 0
0 0 0 0 0 0 0 0 0 0 0 0 0 0 0 0 0 0 0 0 0 0 0 0 0 0 0 0 0 0 0 0 0 0 0 0 0 0 0 0 0 0 0 0
0 0 0 0 0 0 0 0 0 0 0 0 0 0 0 0 0 0 0 0 0 0 0 0 0 0 0 0 0 0 0 0 0 0 0 0 0 0 0 0 0 0 0 0
Wind_Speed
3 5 2 4 5 4 4 3 1 1 1 3 4 5 6 7 6 8 8 7 7 5 4 5 6 5 5 5 5 4 5 3 3 2 2 2 2 2 3 3 4 4 4 4
5 1 5 4 4 4 3 3 1 1 2 3 3 2 3 6 7 8 9 8 8 6 5 5 5 5 5 4 4 5 4 3 3 2 2 2 2 2 2 2 4 5 5 4
4 4 3 4 3 4 2 4 4 4 3 4 4 1 2 2 3 5 6 7 7 8 7 6 5 5 5 5 4 4 4 4 4 3 3 3 3 2 3 3 3 5 5 4
2 3 3 3 3 5 3 4 6 6 4 0 2 1 3 4 4 7 7 7 8 8 7 6 5 5 4 4 4 4 5 5 4 3 3 4 3 2 2 1 2 4 5 5
3 2 2 3 4 6 4 2 5 4 4 3 2 2 5 2 5 8 9 9 8 7 8 7 6 6 5 4 4 4 5 5 4 4 4 5 4 2 1 2 3 4 4 5
3 2 3 3 2 5 6 6 7 6 5 1 2 3 5 4 6 6 9 9 9 8 7 6 5 6 5 5 4 4 5 5 4 4 4 5 4 3 3 3 3 3 3 4
3 2 1 2 4 3 5 6 4 4 4 4 1 2 7 4 3 6 9 10 10 10 9 8 8 6 6 5 4 4 5 5 4 4 4 4 4 3 3 2 2 3 3 3
1 3 2 2 5 5 4 8 8 5 4 4 1 4 6 2 1 3 7 8 10 10 9 9 8 7 6 6 4 4 5 4 4 4 4 4 4 2 2 2 2 2 2 3
4 3 3 0 2 7 5 3 5 7 3 0 3 5 5 2 3 4 7 8 9 9 10 9 8 7 7 6 5 4 4 4 3 4 4 4 4 3 3 3 3 2 3 3
5 1 2 1 5 5 5 8 6 6 5 2 3 3 4 3 3 4 6 7 8 8 8 8 8 7 6 6 5 5 4 4 3 4 3 3 3 3 3 3 4 4 4 4
3 3 3 3 2 3 3 4 5 4 4 6 3 6 4 5 6 7 7 7 8 8 8 8 7 7 7 6 5 5 4 4 4 4 4 4 3 3 3 3 4 3 4 4
3 5 1 2 2 1 3 5 6 5 3 3 4 6 3 1 3 6 7 7 8 8 8 8 8 7 7 6 5 4 4 4 3 3 4 4 4 4 4 4 4 4 4 4
5 6 3 5 5 4 3 2 3 5 5 4 4 5 2 4 4 4 6 7 8 9 8 7 7 6 6 6 5 4 3 3 3 4 4 4 3 3 3 4 4 4 4 4
6 5 5 6 5 2 1 1 2 4 4 3 5 4 1 1 3 4 6 7 8 8 8 7 6 6 5 5 5 4 3 3 4 4 4 3 3 3 3 3 3 4 4 4
5 4 2 1 1 2 2 2 2 2 4 5 4 4 4 3 4 5 7 8 8 8 8 8 7 6 6 5 4 4 3 2 3 4 3 2 2 2 3 3 3 4 4 5
4 4 3 2 2 3 3 2 2 2 2 2 2 2 1 2 4 6 7 8 8 8 8 8 7 7 7 6 4 3 3 2 3 4 3 3 3 3 3 3 3 4 4 4
3 5 4 0 3 3 2 2 1 1 1 3 3 3 2 3 4 6 7 7 7 8 8 8 7 7 6 6 5 4 3 3 4 3 3 3 3 3 3 3 4 4 4 4
6 5 3 2 3 1 4 1 2 2 1 1 1 2 3 3 3 3 4 6 7 7 7 7 6 6 5 5 5 4 4 4 4 3 3 3 3 2 3 3 3 3 3 3
4 6 4 3 2 1 2 0 2 2 1 1 3 4 3 5 4 2 2 4 6 6 6 6 6 6 6 6 5 5 4 4 4 3 3 3 2 2 2 3 2 2 2 3
5 5 5 4 2 2 4 2 1 3 1 1 4 5 4 4 2 2 3 5 6 6 6 6 6 6 6 5 5 6 5 4 3 3 2 3 3 2 2 1 1 2 2 2
4 4 4 3 2 4 3 2 1 2 5 2 5 6 5 3 3 3 6 6 6 7 7 7 7 6 6 6 6 6 5 4 3 3 3 3 2 2 1 1 1 2 2 3
3 3 2 3 2 4 2 1 3 4 1 3 4 5 4 4 5 6 6 7 8 7 7 7 7 6 5 6 6 6 4 3 3 4 3 2 2 1 2 2 2 2 2 3
2 4 4 5 5 4 1 1 1 2 2 2 4 4 6 6 6 6 6 7 7 7 7 6 7 7 4 4 5 6 4 3 4 4 3 2 2 2 2 2 2 2 2 2
1 2 3 0 2 1 1 0 1 2 2 3 4 6 6 7 7 7 7 6 6 6 6 6 7 7 4 3 4 4 4 4 5 4 2 2 2 2 2 2 1 1 1 1
2 2 2 1 1 1 2 0 1 3 6 6 6 5 6 8 8 7 7 7 6 5 5 6 6 6 5 4 4 3 4 5 4 3 2 2 1 1 1 1 1 0 1 2
3 5 5 5 5 4 3 2 3 5 5 6 7 6 5 7 8 7 7 6 6 6 6 5 5 5 4 4 4 3 3 5 4 3 1 1 1 0 0 1 2 2 2 3
Wind_Direction
87 83 165 201 183 162 142 134 131 248 125 112 145 160 179 167 165 164 165 165 164 151 121 103 100 98 90 76 77 77 79 69 78 80 81 73 50 33 30 27 23 21 22 24
55 250 216 174 151 129 129 122 116 46 67 121 131 146 169 172 186 183 175 173 169 150 130 120 108 99 92 85 78 77 73 66 64 72 85 92 91 65 51 23 22 20 21 20
165 229 171 146 149 143 171 171 174 153 77 70 108 65 182 190 174 177 177 174 168 164 155 145 128 111 99 91 81 84 76 66 58 65 83 79 63 46 32 19 12 6 13 20
219 235 162 155 178 156 229 211 161 145 122 112 116 223 242 191 184 188 184 180 179 166 152 148 139 125 115 102 89 83 76 68 62 69 90 92 90 76 36 11 4 3 11 15
241 201 154 180 203 163 190 112 120 122 118 81 33 142 279 168 208 208 195 189 186 171 156 152 145 134 120 109 101 90 81 69 62 68 85 88 83 79 50 28 20 13 7 9
241 237 187 195 144 140 128 80 63 56 73 67 236 165 266 222 216 203 192 187 182 167 152 141 132 124 115 105 96 94 88 71 63 69 73 87 90 81 61 36 21 9 0 1
337 310 253 154 97 65 100 93 46 15 21 253 278 187 249 256 232 194 187 184 173 163 156 154 149 141 128 115 104 99 97 80 67 70 67 71 77 74 67 44 23 11 6 356
125 293 259 187 164 161 157 136 152 178 207 263 318 235 258 303 328 161 162 160 157 159 159 159 155 145 135 125 113 103 102 94 80 76 67 57 56 60 57 46 31 16 359 342
164 254 300 274 137 132 131 144 151 125 131 142 274 280 302 64 68 108 133 141 152 158 158 155 148 141 135 129 123 119 115 103 89 84 79 66 57 53 48 39 26 13 0 357
151 175 315 326 67 36 119 138 103 117 144 221 281 270 263 244 187 157 153 155 154 150 151 148 143 139 134 131 122 113 109 106 92 79 70 69 58 50 44 40 24 17 10 10
121 121 337 33 95 158 99 89 99 109 147 154 222 265 243 223 192 178 171 158 152 151 148 143 137 133 127 121 115 108 102 97 90 85 78 66 52 45 42 40 25 18 16 15
132 110 33 297 302 136 128 145 142 145 190 163 168 260 321 188 163 160 156 148 143 140 136 135 133 131 128 124 118 111 106 103 99 94 86 72 55 48 44 34 22 21 22 15
131 110 76 353 351 15 63 78 115 118 115 143 163 255 18 70 96 123 138 140 138 134 131 130 130 134 135 131 126 121 116 111 100 92 85 71 54 48 39 26 18 21 23 17
109 102 149 183 215 197 100 83 121 115 133 179 211 231 291 101 130 134 136 137 136 139 140 139 136 135 135 134 133 129 120 117 110 99 93 81 57 45 36 28 23 23 24 22
90 100 111 144 199 127 112 127 124 135 170 179 217 206 238 214 176 156 144 140 141 144 147 150 148 145 142 138 131 125 117 107 111 108 98 82 63 53 48 37 29 29 30 26
79 111 91 49 47 94 80 51 93 111 135 164 154 232 236 117 120 137 146 152 156 157 158 155 153 150 149 147 140 131 122 114 115 111 98 84 72 60 45 32 34 36 31 21
95 115 100 309 314 54 15 313 168 139 153 165 195 224 134 126 151 162 161 160 163 165 162 161 160 157 155 154 150 147 140 122 110 107 99 87 75 58 41 40 42 34 24 20
122 103 104 92 59 109 255 310 129 112 41 37 113 125 142 146 132 128 151 161 162 162 160 157 152 148 145 143 139 135 126 116 111 105 97 90 82 63 52 52 44 28 21 22
121 125 108 104 102 285 290 269 147 142 280 80 122 111 96 97 79 55 135 150 159 157 151 149 151 146 138 138 139 130 120 115 112 110 102 91 88 80 66 53 37 22 23 22
57 85 105 111 125 221 249 298 160 109 289 176 142 142 142 115 119 233 159 134 131 129 131 135 134 128 131 137 135 128 127 124 127 125 118 105 97 92 75 51 37 25 32 26
40 48 86 121 163 265 271 296 87 134 252 183 157 154 153 165 187 155 129 123 127 126 128 130 129 131 139 137 130 127 128 135 137 122 113 102 93 98 99 62 43 44 44 40
143 124 142 133 148 253 310 101 163 219 230 140 146 145 141 132 115 118 125 127 126 123 124 127 126 125 127 128 126 126 134 140 121 109 98 87 72 72 86 77 55 51 53 46
168 179 174 177 204 242 280 225 236 161 141 143 143 138 136 130 130 126 127 129 127 129 129 128 129 124 119 126 133 139 152 136 121 110 99 83 72 60 65 76 68 49 45 47
260 134 120 175 272 281 309 356 59 114 128 128 133 137 138 138 138 132 132 130 128 127 130 130 128 129 130 131 138 149 149 134 125 120 108 91 83 58 49 59 70 70 30 9
210 138 120 206 251 44 345 50 126 96 95 98 100 113 133 134 136 138 137 136 132 125 126 131 137 141 144 139 141 150 147 135 129 126 116 98 85 73 43 30 9 269 255 228
203 172 166 210 209 177 211 194 138 120 117 122 115 107 114 130 135 135 137 138 135 132 129 130 135 141 146 144 149 157 152 146 142 137 135 137 127 108 89 6 344 326 269 287